"Pseudo-MPEC" for C5Z55W2

Created 2021 Sep 16 10:07:06 UT using Find_Orb

Click here for an explanation of pseudo-MPECs

 
 Astrometry: 
     C5Z55W2  C2021 09 14.26395700 06 34.01 -13 32 22.4    ~9E77 19.96GVNEOCPG96
     C5Z55W2  C2021 09 14.26920300 06 33.31 -13 31 56.7    ~9E77 20.48GVNEOCPG96
     C5Z55W2  C2021 09 14.27444800 06 32.61 -13 31 30.6    ~9E77 20.46GVNEOCPG96
     C5Z55W2  C2021 09 14.27969700 06 31.91 -13 31 04.4    ~9E77 20.08GVNEOCPG96
     C5Z55W2 KC2021 09 14.35945300 06 21.24 -13 24 24.4    ~9E97 20.37GVNEOCP703
     C5Z55W2 KC2021 09 14.36097200 06 21.04 -13 24 15.7    ~9E97 21.32GVNEOCP703
     C5Z55W2 pC2021 09 14@0ew\*J_Ye]666Z!gj\#*cbli^?u$O;!1A`6[s!/r.y,/AvEDb,sL01
     C5Z55W2 KC2021 09 14R$1Ki;De6*!qWWigOw@5`a2+,8nleqPKK?%@jVFNZW=!`oAuU]-;L01
     C5Z55W2 KC2021 09 14CFc5ec`h15mQS].V]66:-kVfAstrometryv2I]'F]j6ISveA.T49L01
     C5Z55W2 |C2021 09 15.K!/k.#yy$UeTAi7H5u8KxE=fdqT#%ZYwiJredacted;+FI*JYpX807
     C5Z55W2 |C2021 09 159J#(y;Twa0:'te6Qkp0h95t_^Xdq(vLAFOJEDXv_h6AWGG'Xi@m=807
     C5Z55W2 |C2021 09 15Y+PCWX@)T@2$fV6pX-7tcnA0OSSoKN`!L=3FFgfXk,h[I^9Vug?C807
     C5Z55W2 |C2021 09 15/)r6A=;J#P@*v@qR=#@x%8\TYURh8$_click(DJY:TSD*MF%3#E1807
     C5Z55W2 |C2021 09 15)$#?3]Ne%fCdoC@mGS-!,R+YH,8[/^F9J2Oaan@'8_P5%C]YQ^?]807
     C5Z55W2 |C2021 09 15jS+Pk@_)fRFjeO+DL-61^Kj'b#2hereGCokPTAutZ%;3%+R.7X,=807
     C5Z55W2 |C2021 09 16?BN#H+0Bq1?gIuwDpX#eE(pQ7acCX(@,`B%ERG@)@i%r3O*7:)sd807
     C5Z55W2 |C2021 09 16Zdw.^%(EeJJ0VKMtE0;4ig!rql2fQ4*118IjtnVDr@!wGuB2j0UW807
     C5Z55W2 |C2021 09 162N(X:(DkpOV'ArN(:G;x$kA6[Qkm=?uvZXt%forN#60y(oDd/kf%807
     C5Z55W2 KC2021 09 16jjJeZ_pLRhE(dY:89BpORoE4ix'5?`%c0DDJ:J(o^FOR9hu/q'Xv734
     C5Z55W2 KC2021 09 16+nW@gyQ(wORly/tHmuw4?OexplanationwjVU,LQlA.f.@9/=ha/734

Station data:
(703) Catalina Sky Survey  (N32.417006 W110.732640)  US/Arizona.  Observers
   T. A. Pruyne, B. M. Africano, E. J. Christensen, G. A. Farneth, D. C.
   Fuls, A. R. Gibbs, A. D. Grauer, H. Gröller, J. A. Johnson, R. A.
   Kowalski, S. M. Larson, G. J. Leonard, D. Rankin, R. L. Seaman, F. C.
   Shelly. 0.68 m Schmidt + 10K CCD.
(734) Farpoint Observatory, Eskridge  (N38.890107 W96.001400)  US/Kansas.
   Observer G. Hug. 0.69-m reflector + CCD.
(807) Cerro Tololo Observatory, La Serena  (S30.169136 W70.805900)  Chile.
(G96) Mt. Lemmon Survey  (N32.442754 W110.788720)  US/Arizona.  Observers T.
   A. Pruyne, B. M. Africano, E. J. Christensen, G. A. Farneth, D. C. Fuls,
   A. R. Gibbs, A. D. Grauer, H. Gröller, J. A. Johnson, R. A. Kowalski, S.
   M. Larson, G. J. Leonard, D. Rankin, R. L. Seaman, F. C. Shelly. 1.5-m
   reflector + 10K CCD.
(L01) Višnjan Observatory, Tičan  (N45.290900 E13.749300)  Croatia.
   Observers K. Korlević, E. Pettarin. Measurer E. Pettarin. 1.0-m f/2.9
   reflector + CCD.

Orbital elements:  C5Z55W2
   Perihelion 2021 Sep 13.165006 +/- 0.138763 TT =  3:57:36 (JD 2459470.665006)
Epoch 2021 Sep 16.0 TT = JDT 2459473.5   Earth MOID: 0.2323   AutoNEOCP
M   0.82656362 +/- 0.0380469        (J2000 ecliptic)
n   0.29155745 +/- 0.00416493       Peri.  351.56213 +/- 0.1212575
a   2.25244024 +/- 0.0214497        Node   359.30510 +/- 0.0030226
e   0.4519041 +/- 0.004536          Incl.   19.18634 +/- 0.1163979
P   3.38                   H 22.7   G  0.15   U  9.1  
q 1.23455307 +/- 0.00156334    Q 3.27032741 +/- 0.0419865
From 20 observations 2021 Sept. 14-16; mean residual 0".34
Residuals in arcseconds: 
210914 G96  .15+  .37+    210914 L01  .12-  .23-    210915 807  .10+  .04-    
210914 G96  .10+  .14-    210914 L01  .19+  .55-    210916 807  .38+  .04+    
210914 G96  .06+  .26-    210915 807  .56-  .09-    210916 807  .05-  1.0-    
210914 G96  .03+  .31-    210915 807  .03+  .01+    210916 807  .77-  .52+    
210914 703  .02-  .31-    210915 807  .25+  .07+    210916 734  .26+  .20+    
210914 703  .02+  .75+    210915 807  .07-  .00     210916 734  .11+  .05+    
210914 L01  .42-  .27+    210915 807  .07+  .54+    

Ephemerides (geocentric):
Date (UTC) HH   RA              Dec         delta   r     elong  mag " sig PA
---- -- -- --  -------------   -----------  ------ ------ -----  --- ---- ---
2021 09 16 10  00 02 13.110   -10 29 49.54  .23271 1.2350 169.8 20.5 .113 151
2021 09 16 11  00 02 08.060   -10 26 15.86  .23269 1.2350 169.8 20.5 .122 151
2021 09 16 12  00 02 03.009   -10 22 42.10  .23267 1.2350 169.9 20.5 .131 151
2021 09 16 13  00 01 57.959   -10 19 08.29  .23266 1.2351 170.0 20.5 .141 151
2021 09 16 14  00 01 52.908   -10 15 34.40  .23264 1.2351 170.0 20.5 .152 151
2021 09 16 15  00 01 47.857   -10 12 00.46  .23262 1.2351 170.1 20.5 .162 152
2021 09 16 16  00 01 42.805   -10 08 26.45  .23261 1.2351 170.2 20.5 .173 152
2021 09 16 17  00 01 37.754   -10 04 52.38  .23259 1.2351 170.3 20.5 .185 152
2021 09 16 18  00 01 32.702   -10 01 18.25  .23258 1.2351 170.3 20.5 .197 152
2021 09 16 19  00 01 27.650   -09 57 44.07  .23256 1.2351 170.4 20.5 .209 152
2021 09 16 20  00 01 22.599   -09 54 09.82  .23255 1.2351 170.5 20.5 .222 152
2021 09 16 21  00 01 17.547   -09 50 35.52  .23254 1.2352 170.5 20.5 .235 152
2021 09 16 22  00 01 12.495   -09 47 01.16  .23252 1.2352 170.6 20.5 .248 152
2021 09 16 23  00 01 07.443   -09 43 26.75  .23251 1.2352 170.7 20.5 .262 153
2021 09 17 00  00 01 02.391   -09 39 52.28  .23250 1.2352 170.7 20.5 .276 153
2021 09 17 01  00 00 57.339   -09 36 17.76  .23249 1.2352 170.8 20.5 .291 153
2021 09 17 02  00 00 52.287   -09 32 43.19  .23248 1.2352 170.9 20.5 .306 153
2021 09 17 03  00 00 47.235   -09 29 08.56  .23247 1.2352 171.0 20.5 .321 153
2021 09 17 04  00 00 42.183   -09 25 33.89  .23246 1.2353 171.0 20.5 .337 153
2021 09 17 05  00 00 37.131   -09 21 59.17  .23245 1.2353 171.1 20.5 .353 153
2021 09 17 06  00 00 32.079   -09 18 24.40  .23244 1.2353 171.2 20.5 .370 153
2021 09 17 07  00 00 27.028   -09 14 49.58  .23243 1.2353 171.2 20.5 .386 153
2021 09 17 08  00 00 21.976   -09 11 14.71  .23242 1.2353 171.3 20.5 .404 153
2021 09 17 09  00 00 16.925   -09 07 39.81  .23241 1.2353 171.4 20.5 .421 154
2021 09 17 10  00 00 11.874   -09 04 04.85  .23241 1.2353 171.4 20.5 .439 154
2021 09 17 11  00 00 06.823   -09 00 29.86  .23240 1.2354 171.5 20.5 .458 154
2021 09 17 12  00 00 01.773   -08 56 54.82  .23239 1.2354 171.6 20.5 .477 154
2021 09 17 13  23 59 56.723   -08 53 19.74  .23239 1.2354 171.6 20.5 .496 154
2021 09 17 14  23 59 51.673   -08 49 44.62  .23238 1.2354 171.7 20.5 .515 154
2021 09 17 15  23 59 46.623   -08 46 09.47  .23238 1.2354 171.8 20.5 .535 154
2021 09 17 16  23 59 41.574   -08 42 34.27  .23237 1.2354 171.9 20.5 .556 154
2021 09 17 17  23 59 36.525   -08 38 59.04  .23237 1.2355 171.9 20.5 .576 154
2021 09 17 18  23 59 31.476   -08 35 23.77  .23236 1.2355 172.0 20.5 .597 154
2021 09 17 19  23 59 26.428   -08 31 48.47  .23236 1.2355 172.1 20.5 .619 154
2021 09 17 20  23 59 21.380   -08 28 13.13  .23236 1.2355 172.1 20.5 .641 154
2021 09 17 21  23 59 16.333   -08 24 37.76  .23236 1.2355 172.2 20.5 .663 155
2021 09 17 22  23 59 11.286   -08 21 02.36  .23235 1.2355 172.3 20.5 .685 155
2021 09 17 23  23 59 06.240   -08 17 26.93  .23235 1.2356 172.3 20.4 .708 155
2021 09 18 00  23 59 01.194   -08 13 51.47  .23235 1.2356 172.4 20.4 .731 155
2021 09 18 01  23 58 56.148   -08 10 15.98  .23235 1.2356 172.5 20.4 .755 155
2021 09 18 02  23 58 51.104   -08 06 40.46  .23235 1.2356 172.5 20.4 .779 155
2021 09 18 03  23 58 46.059   -08 03 04.92  .23235 1.2356 172.6 20.4 .803 155
2021 09 18 04  23 58 41.016   -07 59 29.35  .23235 1.2356 172.7 20.4 .828 155
2021 09 18 05  23 58 35.973   -07 55 53.76  .23235 1.2357 172.7 20.4 .853 155
2021 09 18 06  23 58 30.930   -07 52 18.14  .23235 1.2357 172.8 20.4 .878 155
2021 09 18 07  23 58 25.889   -07 48 42.50  .23236 1.2357 172.9 20.4 .904 155
2021 09 18 08  23 58 20.848   -07 45 06.84  .23236 1.2357 173.0 20.4 .930 155
2021 09 18 09  23 58 15.807   -07 41 31.15  .23236 1.2357 173.0 20.4 .956 155